Regional Weather Roundup
Issued by NWS

Home | Current Version | Previous Version | Text Only | Print | Product List | Glossary Off
Versions: 1 2 3 4 5 6 7 8 9 10 11 12 13 14 15 16 17 18 19 20 21 22 23 24 25 26 27 28 29 30 31 32 33 34 35 36 37 38 39 40 41 42 43 44 45 46 47 48 49 50

000
ASUS43 KLOT 270203
RWRIL

ILLINOIS REGIONAL WEATHER ROUNDUP
NATIONAL WEATHER SERVICE CHICAGO/ROMEOVILLE IL
900 PM CDT WED APR 26 2017

NOTE: "FAIR" INDICATES FEW OR NO CLOUDS BELOW 12,000 FEET WITH NO
SIGNIFICANT WEATHER AND/OR OBSTRUCTIONS TO VISIBILITY.

* THESE STATIONS ARE NOT UNDER NWS QUALITY CONTROL. THEY ALSO MAY NOT
  REPORT WEATHER SUCH AS PRECIPITATION OR FOG.

ILZ001-002-007-009-015-016-024-270300-
NORTHWEST ILLINOIS

CITY           SKY/WX    TMP DP  RH WIND       PRES   REMARKS
MOLINE         CLOUDY    50  45  83 NW6       29.48F
STERLING*      CLOUDY    51  49  92 NW3       29.47F
SAVANNA*       CLOUDY    50  46  84 NW7       29.48F
$$

ILZ003-004-008-010-011-017-018-270300-
NORTH CENTRAL ILLINOIS

CITY           SKY/WX    TMP DP  RH WIND       PRES   REMARKS
ROCKFORD       CLOUDY    53  50  89 NW8       29.48F
FREEPORT*      CLOUDY    50  48  95 W8        29.48F
ROCHELLE*      CLOUDY    51  50  95 W5        29.48S
DE KALB*       CLOUDY    55  53  92 NW6       29.49R
PERU*          CLOUDY    53  50  90 NW7       29.47F
$$

ILZ005-006-012>014-019>023-270300-
NORTHEAST ILLINOIS

CITY           SKY/WX    TMP DP  RH WIND       PRES   REMARKS
CHICAGO-OHARE  CLOUDY    63  56  78 W5        29.45S
CHICAGO-MIDWAY LGT RAIN  67  57  70 W6        29.46S
AURORA         CLOUDY    59  55  87 W6        29.47F
LANSING*       LGT RAIN  66  61  84 W5        29.47R
JOLIET*        RAIN      62  59  91 CALM      29.48R
WAUKEGAN       CLOUDY    62  55  77 W3        29.44F
DUPAGE AIRPORT CLOUDY    61  57  87 SW3       29.46S
KANKAKEE*      RAIN      62  58  87 S9        29.52R
WHEELING       CLOUDY    64  58  80 W3        29.46S
MORRIS*        RAIN      60  56  88 CALM      29.47R
NORTHERLY ISL    N/A     67  55  65 W10         N/A
$$

LMZ740>746-270300-
SOUTHERN LAKE MICHIGAN

STATION/POSITION SKY/WX   TEMP    WIND        PRES    VSBY  WAVE
                          AIR SEA DIR/SP/G                  HT/PER
                          (F)     (DEG/KT/KT) (MB)    (MI)  (FT/S)
SOUTHERN BUOY              50 42  150/  4/  6  997.6          1
HARRISON CRIB              68     270/ 12/ 12   N/A
BURNHAM HARBOR             67     260/  6/ 11   N/A
CALUMET HARBOR             69     280/  5/  8  997.0S
BURNS HARBOR               63     240/  7/ 10  998.3R
MICHIGAN CITY              70     230/ 10/ 10   N/A
MICHIGAN CITY 6N           58 49                N/A           1/ 3
ST. JOSEPH                 60 49  110/  2/  2  997.1F         1/ 3
$$

ILZ025>027-034>036-040-047-049-050-058-095>099-270300-
WEST-CENTRAL ILLINOIS

CITY           SKY/WX    TMP DP  RH WIND       PRES   REMARKS
QUINCY         RAIN      47  46  97 N14       29.48F FOG
GALESBURG*     CLOUDY    49  46  91 NW7       29.49R
MACOMB*        CLOUDY    49  47  93 N9        29.50R
JACKSONVILLE*  RAIN      52  51  96 N10       29.47R
PITTSFIELD*    LGT RAIN  51  49  96 NW10      29.48F
$$

ILZ028>032-037-038-041>044-048-051>054-059>061-270300-
CENTRAL ILLINOIS

CITY           SKY/WX    TMP DP  RH WIND       PRES   REMARKS
PONTIAC        LGT RAIN  61  61  99 E7        29.48S
BLOOMINGTON    LGT RAIN  60  59  96 E8        29.47F
DECATUR        LGT RAIN  61  61 100 S7        29.49R
PEORIA         LGT RAIN  52  51  97 NW6       29.47R
LACON*         CLOUDY    53  51  94 N7        29.46S
LINCOLN*       RAIN      62  62 100 SE6       29.45S
SPRINGFIELD    LGT RAIN  61  59  93 SW5       29.47R
TAYLORVILLE    RAIN      60  59  98 SE17      29.44F
$$

ILZ033-039-045-046-055>057-062-063-270300-
EAST-CENTRAL ILLINOIS

CITY           SKY/WX    TMP DP  RH WIND       PRES   REMARKS
CHAMPAIGN      RAIN      61  58  90 SE6       29.50R
RANTOUL*       RAIN      61  60  97 CALM      29.48F
MATTOON        RAIN      59  59 100 S6        29.51R FOG
PARIS*         CLOUDY    60  59  97 CALM      29.51F
$$

ILZ079-100>102-270300-
SOUTHWEST ILLINOIS

CITY           SKY/WX    TMP DP  RH WIND       PRES   REMARKS
ALTON          RAIN      59  57  94 SE16      29.44R
CAHOKIA*       LGT RAIN  61  58  90 SE17G31   29.42F
SPARTA*        LGT RAIN  59  57  94 SE10      29.49F
$$

ILZ064>066-069>071-074>076-080>082-084>086-088>090-092>094-270300-
SOUTH-CENTRAL ILLINOIS

CITY           SKY/WX    TMP DP  RH WIND       PRES   REMARKS
CARBONDALE     LGT RAIN  59  59 100 S6        29.53
CAIRO*         CLOUDY    58  58  99 SE12      29.59R
EFFINGHAM*     RAIN      60  60 100 CALM      29.53F
MARION         LGT RAIN  61  59  94 SW6       29.54R
MT. VERNON     RAIN      60  59  96 E5        29.53F FOG
CENTRALIA*     RAIN      60  60  99 SE6       29.51F
SALEM*         RAIN      61  59  93 SE5       29.53S
METROPOLIS*    TSTM      59  58  97 E3        29.58R
$$

ILZ067-068-072-073-078-083-087-091-270300-
SOUTHEAST ILLINOIS

CITY           SKY/WX    TMP DP  RH WIND       PRES   REMARKS
LAWRENCEVILLE  CLOUDY    63  61  93 S3        29.50S
FLORA*         RAIN      60  59  96 SW7       29.56R
FAIRFIELD*     RAIN      59  59 100 S3        29.58R
HARRISBURG*    RAIN      59  59 100 NE12      29.50F
ROBINSON*      MOCLDY    62  60  94 NE5       29.48F
CARMI*         TSTM      58  58  99 W7        29.59R
$$

ABBREVIATIONS USED IN REMARKS
   TC - TEMPERATURE IN CELSIUS
  WCI - WIND CHILL INDEX
   HX - HEAT INDEX
  VSB - VISIBILITY
$$




USA.gov is the U.S. government's official web portal to all federal, state and local government web resources and services.